User: anonymous   Login
Location: Unspecified
(0.0000°N, 0.0000°E)
Time: 00:19:37
(UTC+02:00)
Language:

Resurs 1-3 - Orbit

View from above orbital plane
View from above orbital plane
View from above satellite
View from above satellite

Ground track
Ground track

The orbit data is extracted from the following two-line orbital elements,

1 23342U 94074A   15244.55464291  .00000177  00000-0  31247-4 0  9996
2 23342  98.1484 265.8099 0001941  80.8914  33.3107 14.79000964121016
Epoch (UTC): 01 September 2015 13:18:41
Eccentricity: 0.0001941
inclination: 98.1484°
perigee height: 631 km
apogee height: 634 km
right ascension of ascending node: 265.8099°
argument of perigee: 80.8914°
revolutions per day: 14.79000964
mean anomaly at epoch: 33.3107°
orbit number at epoch: 12101

The dashed part of the orbit path shows where the satellite is in the earth's shadow,  

DLR